AAUSAT 4

Last updated on Thu Sep 07 2023 00:03:00 GMT+0000 (Coordinated Universal Time)

1 41460U 16025E 23249.33587210 .07897555 30079-5 17281-2 0 9999 2 41460 98.1243 117.1757 0006472 164.1838 195.9657 16.30498134406532

Satellite not in orbit